• In Netherlands
  • List of Countries
  • For 7 days
  • Water Temperature
  • Satellite Maps
  • Weather Map
  • Weather Widgets
  • user-avatar
    Login

    Hourly Weather Jalalabad

    Today, 26 May, Saturday

    Time Temperature Precipitation Wind Pressure Humidity
    00:00 +29°C° 0.1 mm 2 mps 707 mmHg 34%
    01:00 +28°C° 0.1 mm 2 mps 707 mmHg 35%
    02:00 +28°C° 0.1 mm 2 mps 707 mmHg 36%
    03:00 +27°C° 0.1 mm 2 mps 707 mmHg 36%
    04:00 +27°C° 0.1 mm 2 mps 706 mmHg 36%
    05:00 +26°C° 0 mm 2 mps 706 mmHg 34%
    06:00 +28°C° 0.1 mm 2 mps 706 mmHg 30%
    07:00 +29°C° 0.1 mm 2 mps 706 mmHg 27%
    08:00 +30°C° 0.1 mm 2 mps 706 mmHg 24%
    09:00 +31°C° 0.2 mm 2 mps 706 mmHg 23%
    10:00 +32°C° 0.2 mm 2 mps 706 mmHg 22%
    11:00 +35°C° 0 mm 2 mps 706 mmHg 19%
    12:00 +36°C° 0.1 mm 2 mps 706 mmHg 19%
    13:00 +36°C° 0.1 mm 2 mps 706 mmHg 19%
    14:00 +36°C° 0.1 mm 2 mps 706 mmHg 19%
    15:00 +36°C° 0.3 mm 2 mps 705 mmHg 19%
    16:00 +36°C° 0.3 mm 2 mps 705 mmHg 20%
    17:00 +36°C° 0.3 mm 2 mps 705 mmHg 20%
    18:00 +35°C° 0.2 mm 2 mps 705 mmHg 23%
    19:00 +34°C° 0.2 mm 2 mps 706 mmHg 25%
    20:00 +32°C° 0.2 mm 1 mps 706 mmHg 27%
    21:00 +31°C° 0.1 mm 2 mps 706 mmHg 28%
    22:00 +30°C° 0.1 mm 2 mps 706 mmHg 28%
    23:00 +30°C° 0.1 mm 2 mps 707 mmHg 29%

    Tomorrow, 27 May, Sunday

    Time Temperature Precipitation Wind Pressure Humidity
    00:00 +29°C° 0 mm 2 mps 706 mmHg 29%
    01:00 +29°C° 0 mm 2 mps 706 mmHg 29%
    02:00 +28°C° 0 mm 2 mps 706 mmHg 30%
    03:00 +28°C° 0 mm 2 mps 706 mmHg 31%
    04:00 +27°C° 0 mm 2 mps 706 mmHg 32%
    05:00 +27°C° 0 mm 2 mps 706 mmHg 33%
    06:00 +28°C° 0 mm 2 mps 706 mmHg 31%
    07:00 +30°C° 0 mm 2 mps 706 mmHg 28%
    08:00 +31°C° 0 mm 2 mps 707 mmHg 25%
    09:00 +32°C° 0 mm 2 mps 707 mmHg 23%
    10:00 +34°C° 0 mm 2 mps 707 mmHg 22%
    11:00 +36°C° 0 mm 2 mps 707 mmHg 20%
    12:00 +36°C° 0 mm 2 mps 707 mmHg 19%
    13:00 +37°C° 0 mm 2 mps 706 mmHg 18%
    14:00 +38°C° 0 mm 2 mps 706 mmHg 18%
    15:00 +38°C° 0 mm 2 mps 706 mmHg 17%
    16:00 +38°C° 0 mm 2 mps 705 mmHg 17%
    17:00 +38°C° 0 mm 2 mps 705 mmHg 17%
    18:00 +37°C° 0 mm 2 mps 705 mmHg 20%
    19:00 +35°C° 0 mm 2 mps 706 mmHg 23%
    20:00 +34°C° 0 mm 2 mps 706 mmHg 26%
    21:00 +32°C° 0 mm 2 mps 706 mmHg 26%
    22:00 +31°C° 0 mm 3 mps 707 mmHg 26%
    23:00 +31°C° 0 mm 3 mps 707 mmHg 26%

    Day after tomorrow, 28 May, Monday

    Time Temperature Precipitation Wind Pressure Humidity
    00:00 +30°C° 0 mm 3 mps 707 mmHg 26%
    01:00 +29°C° 0 mm 4 mps 707 mmHg 27%
    02:00 +29°C° 0 mm 4 mps 706 mmHg 27%
    03:00 +28°C° 0 mm 4 mps 706 mmHg 28%
    04:00 +28°C° 0 mm 4 mps 706 mmHg 28%
    05:00 +27°C° 0 mm 4 mps 706 mmHg 28%
    06:00 +29°C° 0 mm 4 mps 706 mmHg 25%
    07:00 +30°C° 0 mm 5 mps 706 mmHg 23%
    08:00 +33°C° 0 mm 6 mps 707 mmHg 20%
    09:00 +34°C° 0 mm 6 mps 707 mmHg 19%
    10:00 +35°C° 0 mm 6 mps 706 mmHg 18%
    11:00 +36°C° 0 mm 6 mps 706 mmHg 16%
    12:00 +38°C° 0 mm 6 mps 706 mmHg 16%
    13:00 +39°C° 0 mm 6 mps 705 mmHg 15%
    14:00 +40°C° 0 mm 6 mps 705 mmHg 15%
    15:00 +39°C° 0 mm 6 mps 704 mmHg 15%
    16:00 +39°C° 0 mm 7 mps 704 mmHg 15%
    17:00 +39°C° 0 mm 7 mps 704 mmHg 16%
    18:00 +36°C° 0 mm 7 mps 704 mmHg 18%
    19:00 +34°C° 0 mm 7 mps 704 mmHg 21%
    20:00 +33°C° 0 mm 6 mps 704 mmHg 23%
    21:00 +32°C° 0 mm 6 mps 704 mmHg 25%
    22:00 +30°C° 0 mm 6 mps 704 mmHg 26%
    23:00 +29°C° 0 mm 6 mps 705 mmHg 28%

    29 May, Tuesday

    Time Temperature Precipitation Wind Pressure Humidity
    00:00 +28°C° 0 mm 5 mps 704 mmHg 28%
    01:00 +28°C° 0 mm 5 mps 704 mmHg 29%
    02:00 +27°C° 0 mm 4 mps 704 mmHg 30%
    03:00 +27°C° 0 mm 4 mps 704 mmHg 30%
    04:00 +26°C° 0 mm 4 mps 704 mmHg 30%
    05:00 +26°C° 0 mm 4 mps 704 mmHg 30%
    06:00 +27°C° 0 mm 4 mps 704 mmHg 27%
    07:00 +29°C° 0 mm 4 mps 704 mmHg 23%
    08:00 +30°C° 0 mm 4 mps 705 mmHg 20%
    09:00 +33°C° 0 mm 4 mps 704 mmHg 19%
    10:00 +34°C° 0 mm 3 mps 704 mmHg 17%
    11:00 +35°C° 0 mm 3 mps 704 mmHg 16%
    12:00 +36°C° 0 mm 3 mps 704 mmHg 15%
    13:00 +37°C° 0 mm 2 mps 704 mmHg 14%
    14:00 +37°C° 0 mm 2 mps 703 mmHg 13%
    15:00 +38°C° 0 mm 2 mps 703 mmHg 12%
    16:00 +38°C° 0 mm 2 mps 703 mmHg 12%
    17:00 +38°C° 0 mm 2 mps 703 mmHg 11%
    18:00 +36°C° 0 mm 2 mps 703 mmHg 13%
    19:00 +35°C° 0 mm 2 mps 703 mmHg 14%
    20:00 +32°C° 0 mm 2 mps 703 mmHg 16%
    21:00 +32°C° 0 mm 2 mps 704 mmHg 16%
    22:00 +31°C° 0 mm 3 mps 704 mmHg 17%
    23:00 +30°C° 0 mm 3 mps 704 mmHg 17%

    30 May, Wednesday

    Time Temperature Precipitation Wind Pressure Humidity
    00:00 +30°C° 0 mm 3 mps 704 mmHg 18%
    01:00 +29°C° 0 mm 4 mps 704 mmHg 18%
    02:00 +28°C° 0 mm 4 mps 704 mmHg 19%
    03:00 +28°C° 0 mm 4 mps 704 mmHg 19%
    04:00 +27°C° 0 mm 3 mps 704 mmHg 18%
    05:00 +27°C° 0 mm 3 mps 704 mmHg 18%
    06:00 +29°C° 0 mm 3 mps 704 mmHg 16%
    07:00 +30°C° 0 mm 4 mps 705 mmHg 14%
    08:00 +33°C° 0 mm 4 mps 705 mmHg 12%
    09:00 +35°C° 0 mm 4 mps 705 mmHg 11%
    10:00 +36°C° 0 mm 4 mps 706 mmHg 10%
    11:00 +37°C° 0 mm 4 mps 706 mmHg 9%
    12:00 +38°C° 0 mm 3 mps 705 mmHg 9%
    13:00 +39°C° 0 mm 3 mps 705 mmHg 8%
    14:00 +40°C° 0 mm 3 mps 705 mmHg 8%
    15:00 +40°C° 0 mm 3 mps 705 mmHg 8%
    16:00 +40°C° 0 mm 3 mps 704 mmHg 8%
    17:00 +40°C° 0 mm 3 mps 704 mmHg 8%
    18:00 +38°C° 0 mm 3 mps 705 mmHg 11%
    19:00 +36°C° 0 mm 2 mps 705 mmHg 13%
    20:00 +34°C° 0 mm 2 mps 706 mmHg 16%
    21:00 +34°C° 0 mm 3 mps 706 mmHg 17%
    22:00 +33°C° 0 mm 3 mps 706 mmHg 19%
    23:00 +31°C° 0 mm 3 mps 706 mmHg 20%

    31 May, Thursday

    Time Temperature Precipitation Wind Pressure Humidity
    00:00 +31°C° 0 mm 3 mps 706 mmHg 21%
    01:00 +30°C° 0 mm 3 mps 705 mmHg 23%
    02:00 +29°C° 0 mm 3 mps 705 mmHg 24%
    03:00 +29°C° 0 mm 3 mps 705 mmHg 24%
    04:00 +28°C° 0 mm 3 mps 705 mmHg 24%
    05:00 +28°C° 0 mm 3 mps 705 mmHg 25%
    06:00 +30°C° 0 mm 3 mps 705 mmHg 22%
    07:00 +32°C° 0 mm 2 mps 706 mmHg 19%
    08:00 +35°C° 0 mm 2 mps 706 mmHg 16%
    09:00 +36°C° 0 mm 2 mps 706 mmHg 14%
    10:00 +37°C° 0 mm 2 mps 706 mmHg 13%
    11:00 +38°C° 0 mm 2 mps 706 mmHg 12%
    12:00 +39°C° 0 mm 2 mps 706 mmHg 11%
    13:00 +40°C° 0 mm 2 mps 706 mmHg 10%
    14:00 +41°C° 0 mm 2 mps 706 mmHg 10%
    15:00 +41°C° 0 mm 2 mps 705 mmHg 10%
    16:00 +41°C° 0 mm 2 mps 705 mmHg 10%
    17:00 +41°C° 0 mm 2 mps 705 mmHg 10%
    18:00 +39°C° 0 mm 2 mps 705 mmHg 13%
    19:00 +36°C° 0 mm 1 mps 706 mmHg 16%
    20:00 +34°C° 0 mm 1 mps 706 mmHg 20%
    21:00 +34°C° 0 mm 1 mps 706 mmHg 20%
    22:00 +33°C° 0 mm 1 mps 706 mmHg 20%
    23:00 +32°C° 0 mm 1 mps 706 mmHg 20%
    Show more